[Iaude] MPEC T63: 2016 TX10 [a=1.95,e=0.61,i=4.7,H=25.6]

mpec at si.edu mpec at si.edu
Fri Oct 7 12:21:40 EDT 2016


M.P.E.C. 2016-T63                                Issued 2016 Oct. 7, 16:17 UT
 
     The Minor Planet Electronic Circulars contain information on unusual
         minor planets and routine data on comets.  They are published
    on behalf of Division F of the International Astronomical Union by the
          Minor Planet Center, Smithsonian Astrophysical Observatory,
                          Cambridge, MA 02138, U.S.A.

             Prepared using the Tamkin Foundation Computer Network

                              MPC at CFA.HARVARD.EDU
            URL http://www.minorplanetcenter.net/    ISSN 1523-6714


                                   2016 TX10
 
Observations:
     K16T10X* C2016 10 05.23652 22 42 00.86 +07 26 12.6          19.1 VqET063G96
     K16T10X  C2016 10 05.24084 22 41 52.03 +07 27 25.4          19.2 VqET063G96
     K16T10X  C2016 10 05.24518 22 41 43.13 +07 28 38.8          19.0 VqET063G96
     K16T10X  C2016 10 05.24947 22 41 34.43 +07 29 50.9          19.2 VqET063G96
     K16T10X  C2016 10 05.28527 22 40 20.47 +07 40 00.6          19.2 VqET063G96
     K16T10X  C2016 10 05.28724 22 40 16.37 +07 40 34.1          19.0 VqET063G96
     K16T10X  C2016 10 05.28932 22 40 12.01 +07 41 09.7          19.5 VqET063G96
     K16T10X  C2016 10 05.29129 22 40 07.89 +07 41 43.5          19.0 VqET063G96
     K16T10X  C2016 10 05.53016 22 31 48.81 +08 55 11.8          19.5 RoET063300
     K16T10X  C2016 10 05.53178 22 31 44.88 +08 55 43.0          19.1 RoET063300
     K16T10X  C2016 10 05.53339 22 31 40.98 +08 56 14.5          19.2 RoET063300
     K16T10X  C2016 10 05.53500 22 31 37.09 +08 56 47.6          19.6 RoET063300
     K16T10X  C2016 10 05.53662 22 31 33.17 +08 57 19.2          19.5 RoET063300
     K16T10X KC2016 10 06.01652022 09 53.18 +11 56 23.8                qET063J95
     K16T10X KC2016 10 06.02065522 09 39.87 +11 58 09.1                qET063J95
     K16T10X KC2016 10 06.02896922 09 13.01 +12 01 41.7          18.7 RqET063J95
     K16T10X  C2016 10 06.14964122 02 52.73 +12 57 47.3          18.6 VtET063H01
     K16T10X  C2016 10 06.15426122 02 36.11 +12 59 55.8          18.1 VtET063H01
     K16T10X  C2016 10 06.15743 22 02 26.34 +13 01 41.7          17.9 RoET063926
     K16T10X  C2016 10 06.15883 22 02 21.29 +13 02 20.7          17.7 RoET063926
     K16T10X  C2016 10 06.16022 22 02 16.26 +13 02 59.4          18.1 RoET063926
     K16T10X  C2016 10 06.16334922 02 03.21 +13 04 09.8          18.0 VtET063H01
     K16T10X  C2016 10 06.16559 22 01 56.74 +13 05 30.0          17.8 RoET063926
     K16T10X  C2016 10 06.16698 22 01 51.68 +13 06 09.2          18.2 RoET063926
     K16T10X  C2016 10 06.16837 22 01 46.57 +13 06 48.1          17.9 RoET063926
     K16T10X  C2016 10 06.17673622 01 14.37 +13 10 25.1          18.1 VtET063H01
     K16T10X  C2016 10 07.15199 20 38 06.76 +22 44 51.9          18.0 VqET063G96
     K16T10X  C2016 10 07.15223 20 38 05.01 +22 45 01.9                qET063G96
 
Observer details:
300 Bisei Spaceguard Center--BATTeRS.  Observers S. Okumura, A. Asami.  1.0-m
    f/3.0 reflector + CCD.
926 Tenagra II Observatory.  Observers M. Schwartz, P. R. Holvorcem.  Measurer
    M. Schwartz.  0.81-m f/7 Ritchey-Chretien + CCD.
G96 Mt. Lemmon Survey.  Observers R. G. Matheny, G. J. Leonard.  Measurers
    E. J. Christensen, D. C. Fuls, A. R. Gibbs, A. D. Grauer, J. A. Johnson,
    R. A. Kowalski, S. M. Larson, G. J. Leonard, R. G. Matheny, R. L. Seaman,
    F. C. Shelly.  1.5-m reflector + 10K CCD.
H01 Magdalena Ridge Observatory, Socorro.  Observers W. H. Ryan, E. V. Ryan.
    Measurer W. H. Ryan.  2.4-m f/8.9 reflector + CCD.
J95 Great Shefford.  Observer P. Birtwhistle.  0.40-m f/6.0 Schmidt-Cassegrain
    + CCD.
 
Orbital elements:
2016 TX10                                                Earth MOID = 0.0105 AU
Epoch 2016 July 31.0 TT = JDT 2457600.5                 MPC
M 319.19486              (2000.0)            P               Q
n   0.36142462     Peri.   75.61904     +0.13001126     -0.99146270
a   1.9519000      Node     6.93366     +0.87502435     +0.11001692
e   0.6097389      Incl.    4.72256     +0.46629332     +0.06998563
P   2.73           H   25.6           G   0.15           U   5
Residuals in seconds of arc
161005 G96  0.4+  0.0     161005 300  0.3+  0.3-    161006 926  0.4+  0.3+
161005 G96  0.1-  0.2+    161005 300  0.3+  1.1+    161006 H01  0.0   0.4+
161005 G96  0.7-  0.5+    161005 300  0.3+  0.7+    161006 926  0.2+  0.5+
161005 G96  0.5+  0.2+    161006 J95  0.1-  0.0     161006 926  0.3+  0.7+
161005 G96  0.4+  0.5+    161006 J95  0.0   0.2-    161006 926  0.3-  0.6+
161005 G96  0.4+  0.2+    161006 J95  0.1+  0.1-    161006 H01  0.1+  0.3+
161005 G96  0.1+  0.0     161006 H01  0.0   0.2+    161007 G96  0.1-  0.3+
161005 G96  0.1-  0.0     161006 H01  0.2+  0.1+    161007 G96  0.2+  0.6+
161005 300  0.8+  0.7+    161006 926  0.1+  0.6+
161005 300  0.5+  0.0     161006 926  0.3+  0.4+

Ephemeris:
2016 TX10                a,e,i = 1.95, 0.61, 5                   q = 0.7618
Date    TT    R. A. (2000) Decl.     Delta      r     Elong.  Phase     V
2016 09 07    00 13 34.2 -05 55 10   0.2900  1.2873   162.5    13.6    24.2
...
2016 09 22    00 06 11.4 -04 54 40   0.1422  1.1454   174.9     4.5    22.1
...
2016 09 30    23 47 00.7 -02 14 14   0.07061 1.0709   169.1    10.2    20.6
...
2016 10 06    22 10 59.9 +11 53 36   0.02149 1.0165   140.7    38.5    18.8
2016 10 07    20 55 26.3 +21 04 08   0.01566 1.0076   120.9    58.3    18.7
2016 10 08    18 31 07.6 +30 36 20   0.01342 0.9987    87.9    91.3    19.5
...
2016 10 14    13 14 14.2 +14 46 59   0.05455 0.9474    22.9   155.8    28.9
...
2016 10 22    12 46 16.3 +10 23 46   0.1251  0.8846    26.2   150.2    29.3
...
2016 11 06    12 43 13.7 +06 39 03   0.2698  0.7952    37.7   130.3    28.0

A. U. Tomatic                (C) Copyright 2016 MPC           M.P.E.C. 2016-T63




More information about the Iaude mailing list